QPF
0.00 0.00 0.00 0.00 0.00 0.00 0.00 0.00 0.00 0.00 0.00 0.00 0.01 0.01 0.01 0.01 0.00 0.01 0.00 0.00 0.00 0.00 0.01 0.01 0.01 0.01 0.01 0.01 0.01 0.01 0.01 0.00 0.00 0.00 0.00 0.00 0.00 0.00 0.00 0.00 0.00 0.00 0.00
0.00 0.00 0.00 0.00 0.00 0.00 0.00 0.00 0.00 0.00 0.00 0.00 0.00 0.00 0.00 0.00 0.00 0.00 0.00 0.00 0.00 0.00 0.00 0.00 0.01 0.00 0.00 0.00 0.00 0.00 0.00 0.00 0.00 0.00 0.00 0.00 0.00 0.00 0.00 0.00 0.00 0.00 0.00
0.00 0.00 0.00 0.00 0.00 0.00 0.00 0.00 0.00 0.00 0.00 0.00 0.00 0.00 0.00 0.00 0.00 0.00 0.00 0.00 0.00 0.00 0.00 0.00 0.00 0.00 0.00 0.00 0.00 0.00 0.00 0.00 0.00 0.00 0.00 0.00 0.00 0.00 0.00 0.00 0.00 0.00 0.00
0.00 0.00 0.00 0.00 0.00 0.00 0.00 0.00 0.00 0.00 0.00 0.00 0.00 0.00 0.00 0.00 0.00 0.00 0.00 0.00 0.00 0.00 0.00 0.00 0.00 0.00 0.00 0.00 0.00 0.00 0.00 0.00 0.00 0.00 0.00 0.00 0.00 0.00 0.00 0.00 0.00 0.00 0.00
0.00 0.00 0.00 0.00 0.00 0.00 0.00 0.00 0.00 0.00 0.00 0.00 0.00 0.00 0.00 0.00 0.00 0.00 0.00 0.00 0.00 0.00 0.00 0.00 0.00 0.00 0.00 0.00 0.00 0.00 0.00 0.00 0.00 0.00 0.00 0.00 0.00 0.00 0.00 0.00 0.00 0.00 0.00
0.00 0.00 0.00 0.00 0.00 0.00 0.00 0.00 0.00 0.00 0.00 0.00 0.00 0.00 0.00 0.00 0.00 0.00 0.00 0.00 0.00 0.00 0.00 0.00 0.00 0.00 0.00 0.00 0.00 0.00 0.00 0.00 0.00 0.00 0.00 0.00 0.00 0.00 0.00 0.00 0.00 0.00 0.00
0.00 0.00 0.00 0.00 0.00 0.00 0.00 0.00 0.00 0.00 0.00 0.00 0.00 0.00 0.00 0.00 0.00 0.00 0.00 0.00 0.00 0.00 0.00 0.00 0.00 0.00 0.00 0.00 0.00 0.00 0.00 0.00 0.00 0.00 0.00 0.00 0.00 0.00 0.00 0.00 0.00 0.00 0.00
0.00 0.00 0.00 0.00 0.00 0.00 0.00 0.00 0.00 0.00 0.00 0.00 0.00 0.00 0.00 0.00 0.00 0.00 0.00 0.00 0.00 0.00 0.00 0.00 0.00 0.00 0.00 0.00 0.00 0.00 0.00 0.00 0.00 0.00 0.00 0.00 0.00 0.00 0.00 0.00 0.00 0.00 0.00
0.00 0.00 0.00 0.00 0.00 0.00 0.00 0.00 0.00 0.00 0.00 0.00 0.00 0.00 0.00 0.00 0.00 0.00 0.00 0.00 0.00 0.00 0.00 0.00 0.00 0.00 0.00 0.00 0.00 0.00 0.00 0.00 0.00 0.00 0.00 0.00 0.00 0.00 0.00 0.00 0.00 0.00 0.00
0.00 0.00 0.00 0.00 0.00 0.00 0.00 0.00 0.00 0.00 0.00 0.00 0.00 0.00 0.00 0.00 0.00 0.00 0.00 0.00 0.00 0.00 0.00 0.00 0.00 0.00 0.00 0.00 0.00 0.00 0.00 0.00 0.00 0.00 0.00 0.00 0.00 0.00 0.00 0.00 0.00 0.00 0.00
0.00 0.00 0.00 0.00 0.00 0.00 0.00 0.00 0.00 0.00 0.00 0.00 0.00 0.00 0.00 0.00 0.00 0.00 0.00 0.00 0.00 0.00 0.00 0.00 0.00 0.00 0.00 0.00 0.00 0.00 0.00 0.00 0.00 0.00 0.00 0.00 0.00 0.00 0.00 0.00 0.00 0.00 0.00
0.00 0.00 0.00 0.00 0.00 0.00 0.00 0.00 0.00 0.00 0.00 0.00 0.00 0.00 0.00 0.00 0.00 0.00 0.00 0.00 0.00 0.00 0.00 0.00 0.00 0.00 0.00 0.00 0.00 0.00 0.00 0.00 0.00 0.00 0.00 0.00 0.00 0.00 0.00 0.00 0.00 0.00 0.00
0.00 0.00 0.00 0.00 0.00 0.00 0.00 0.00 0.00 0.00 0.00 0.00 0.00 0.00 0.00 0.00 0.00 0.00 0.00 0.00 0.00 0.00 0.00 0.00 0.00 0.00 0.00 0.00 0.00 0.00 0.00 0.00 0.00 0.00 0.00 0.00 0.00 0.00 0.00 0.00 0.00 0.00 0.00
0.00 0.00 0.00 0.00 0.00 0.00 0.00 0.00 0.00 0.00 0.00 0.00 0.00 0.00 0.00 0.00 0.00 0.00 0.00 0.00 0.00 0.00 0.00 0.00 0.00 0.00 0.00 0.00 0.00 0.00 0.00 0.00 0.00 0.00 0.00 0.00 0.00 0.00 0.00 0.00 0.00 0.00 0.00
0.00 0.00 0.00 0.00 0.00 0.00 0.00 0.00 0.00 0.00 0.00 0.00 0.00 0.00 0.00 0.00 0.00 0.00 0.00 0.00 0.00 0.00 0.00 0.00 0.00 0.00 0.00 0.00 0.00 0.00 0.00 0.00 0.00 0.00 0.00 0.00 0.00 0.00 0.00 0.00 0.00 0.01 0.01
0.00 0.00 0.00 0.00 0.00 0.00 0.00 0.00 0.00 0.00 0.00 0.00 0.00 0.00 0.00 0.00 0.00 0.00 0.00 0.00 0.00 0.00 0.00 0.00 0.00 0.00 0.00 0.00 0.00 0.00 0.00 0.00 0.00 0.00 0.00 0.00 0.00 0.00 0.00 0.00 0.01 0.01 0.01
0.00 0.00 0.00 0.00 0.00 0.00 0.00 0.00 0.00 0.00 0.00 0.00 0.00 0.00 0.00 0.00 0.00 0.00 0.00 0.00 0.00 0.00 0.00 0.00 0.00 0.00 0.00 0.00 0.00 0.00 0.00 0.00 0.00 0.00 0.00 0.00 0.00 0.00 0.00 0.00 0.00 0.00 0.01
0.00 0.00 0.00 0.00 0.00 0.00 0.00 0.00 0.00 0.00 0.00 0.00 0.00 0.00 0.00 0.00 0.00 0.00 0.00 0.00 0.00 0.00 0.00 0.00 0.00 0.00 0.00 0.00 0.00 0.00 0.00 0.00 0.00 0.00 0.00 0.00 0.00 0.00 0.00 0.00 0.00 0.00 0.00
0.00 0.00 0.00 0.00 0.00 0.00 0.00 0.00 0.00 0.00 0.00 0.00 0.00 0.00 0.00 0.00 0.00 0.00 0.00 0.00 0.00 0.00 0.00 0.00 0.00 0.00 0.00 0.00 0.00 0.00 0.00 0.00 0.00 0.00 0.00 0.00 0.00 0.00 0.01 0.01 0.01 0.00 0.00
0.00 0.00 0.00 0.00 0.00 0.00 0.00 0.00 0.00 0.00 0.00 0.00 0.00 0.00 0.00 0.00 0.00 0.00 0.00 0.00 0.00 0.00 0.00 0.00 0.00 0.00 0.00 0.00 0.00 0.00 0.00 0.00 0.00 0.00 0.00 0.00 0.00 0.01 0.01 0.01 0.01 0.02 0.01
0.00 0.00 0.00 0.00 0.00 0.00 0.00 0.00 0.00 0.00 0.00 0.00 0.00 0.00 0.00 0.00 0.00 0.00 0.00 0.00 0.00 0.00 0.00 0.00 0.00 0.00 0.00 0.00 0.00 0.00 0.00 0.00 0.00 0.00 0.00 0.00 0.00 0.01 0.02 0.02 0.02 0.02 0.03
0.00 0.00 0.00 0.00 0.00 0.00 0.00 0.00 0.00 0.00 0.00 0.00 0.00 0.00 0.00 0.00 0.00 0.00 0.00 0.00 0.00 0.00 0.00 0.00 0.00 0.00 0.00 0.00 0.00 0.00 0.00 0.00 0.00 0.00 0.00 0.00 0.01 0.02 0.02 0.02 0.02 0.03 0.03
0.00 0.00 0.00 0.00 0.00 0.00 0.00 0.00 0.00 0.00 0.00 0.00 0.00 0.00 0.00 0.00 0.00 0.00 0.00 0.00 0.00 0.00 0.00 0.00 0.00 0.00 0.00 0.00 0.00 0.00 0.00 0.00 0.01 0.00 0.01 0.01 0.02 0.02 0.02 0.01 0.02 0.02 0.02
0.00 0.00 0.00 0.00 0.00 0.00 0.00 0.00 0.00 0.00 0.00 0.00 0.00 0.00 0.00 0.00 0.00 0.00 0.00 0.00 0.00 0.00 0.00 0.00 0.00 0.00 0.00 0.00 0.00 0.00 0.00 0.00 0.01 0.01 0.01 0.01 0.01 0.01 0.01 0.01 0.01 0.01 0.01
0.00 0.00 0.00 0.00 0.00 0.00 0.00 0.00 0.00 0.00 0.00 0.00 0.00 0.00 0.00 0.00 0.00 0.00 0.00 0.00 0.00 0.00 0.00 0.00 0.00 0.00 0.00 0.00 0.00 0.01 0.01 0.01 0.02 0.02 0.03 0.03 0.02 0.01 0.01 0.01 0.00 0.00 0.01
0.00 0.00 0.00 0.00 0.00 0.00 0.00 0.00 0.00 0.00 0.00 0.00 0.00 0.00 0.00 0.00 0.00 0.00 0.00 0.00 0.00 0.00 0.00 0.00 0.00 0.00 0.00 0.00 0.01 0.01 0.01 0.02 0.02 0.04 0.04 0.02 0.01 0.02 0.01 0.01 0.01 0.01 0.01
MSLP
1015.81 1016.01 1016.11 1016.11 1016.05 1016.00 1016.01 1016.15 1016.44 1016.88 1017.44 1018.07 1018.71 1019.31 1019.83 1020.24 1020.56 1020.80 1020.98 1021.14 1021.30 1021.47 1021.65 1021.84 1022.02 1022.19 1022.33 1022.44 1022.54 1022.61 1022.66 1022.68 1022.67 1022.61 1022.51 1022.36 1022.16 1021.93 1021.68 1021.44 1021.22 1021.04 1020.90
1015.74 1016.07 1016.27 1016.35 1016.32 1016.26 1016.24 1016.33 1016.58 1016.99 1017.54 1018.18 1018.85 1019.49 1020.04 1020.47 1020.79 1021.02 1021.18 1021.31 1021.44 1021.59 1021.77 1021.95 1022.14 1022.30 1022.44 1022.54 1022.61 1022.66 1022.68 1022.69 1022.68 1022.63 1022.55 1022.43 1022.25 1022.03 1021.77 1021.49 1021.22 1020.98 1020.78
1015.56 1016.03 1016.36 1016.54 1016.58 1016.55 1016.53 1016.59 1016.81 1017.19 1017.73 1018.37 1019.05 1019.70 1020.26 1020.70 1021.02 1021.23 1021.37 1021.48 1021.59 1021.72 1021.88 1022.06 1022.23 1022.39 1022.51 1022.60 1022.65 1022.68 1022.69 1022.70 1022.70 1022.69 1022.65 1022.56 1022.42 1022.22 1021.96 1021.65 1021.33 1021.01 1020.72
1015.27 1015.89 1016.36 1016.66 1016.80 1016.83 1016.83 1016.89 1017.08 1017.43 1017.94 1018.56 1019.23 1019.88 1020.44 1020.89 1021.20 1021.40 1021.52 1021.61 1021.70 1021.82 1021.96 1022.13 1022.29 1022.44 1022.55 1022.62 1022.66 1022.67 1022.68 1022.70 1022.73 1022.76 1022.77 1022.73 1022.64 1022.47 1022.20 1021.87 1021.49 1021.10 1020.71
1014.93 1015.67 1016.28 1016.71 1016.95 1017.05 1017.09 1017.16 1017.34 1017.66 1018.14 1018.73 1019.37 1020.00 1020.55 1020.99 1021.29 1021.49 1021.60 1021.69 1021.77 1021.87 1022.01 1022.16 1022.32 1022.46 1022.55 1022.61 1022.64 1022.64 1022.66 1022.69 1022.75 1022.81 1022.87 1022.89 1022.84 1022.70 1022.45 1022.10 1021.67 1021.20 1020.71
1014.56 1015.40 1016.13 1016.67 1017.01 1017.19 1017.28 1017.37 1017.54 1017.83 1018.27 1018.82 1019.43 1020.03 1020.56 1020.99 1021.30 1021.50 1021.62 1021.71 1021.79 1021.90 1022.03 1022.19 1022.34 1022.46 1022.55 1022.59 1022.60 1022.60 1022.62 1022.66 1022.73 1022.83 1022.93 1022.99 1022.98 1022.86 1022.62 1022.26 1021.79 1021.26 1020.71
1014.19 1015.10 1015.91 1016.55 1016.98 1017.23 1017.36 1017.48 1017.65 1017.92 1018.33 1018.84 1019.41 1019.99 1020.51 1020.93 1021.24 1021.46 1021.60 1021.70 1021.80 1021.92 1022.06 1022.21 1022.36 1022.47 1022.55 1022.57 1022.57 1022.55 1022.55 1022.59 1022.67 1022.77 1022.89 1022.97 1022.99 1022.89 1022.66 1022.30 1021.82 1021.25 1020.64
1013.83 1014.77 1015.63 1016.32 1016.82 1017.13 1017.32 1017.47 1017.65 1017.92 1018.31 1018.79 1019.34 1019.90 1020.41 1020.84 1021.17 1021.40 1021.57 1021.70 1021.82 1021.95 1022.10 1022.26 1022.39 1022.49 1022.55 1022.55 1022.53 1022.49 1022.46 1022.47 1022.53 1022.62 1022.73 1022.81 1022.83 1022.75 1022.53 1022.18 1021.70 1021.13 1020.51
1013.47 1014.39 1015.27 1015.99 1016.53 1016.90 1017.15 1017.34 1017.55 1017.84 1018.23 1018.72 1019.26 1019.81 1020.33 1020.76 1021.11 1021.37 1021.57 1021.72 1021.86 1022.00 1022.15 1022.30 1022.42 1022.50 1022.53 1022.51 1022.45 1022.37 1022.31 1022.28 1022.30 1022.36 1022.44 1022.50 1022.51 1022.43 1022.22 1021.89 1021.43 1020.88 1020.28
1013.07 1013.95 1014.80 1015.54 1016.11 1016.53 1016.84 1017.10 1017.37 1017.71 1018.13 1018.63 1019.19 1019.75 1020.28 1020.73 1021.10 1021.38 1021.59 1021.75 1021.90 1022.04 1022.18 1022.31 1022.41 1022.46 1022.46 1022.40 1022.31 1022.19 1022.08 1022.00 1021.97 1021.98 1022.02 1022.05 1022.04 1021.95 1021.75 1021.44 1021.02 1020.51 1019.95
1012.61 1013.43 1014.24 1014.96 1015.56 1016.03 1016.42 1016.76 1017.11 1017.52 1018.01 1018.56 1019.15 1019.73 1020.27 1020.73 1021.11 1021.39 1021.60 1021.76 1021.90 1022.02 1022.13 1022.23 1022.29 1022.31 1022.27 1022.18 1022.05 1021.89 1021.74 1021.62 1021.54 1021.50 1021.49 1021.48 1021.44 1021.34 1021.15 1020.87 1020.49 1020.02 1019.51
1012.08 1012.83 1013.58 1014.29 1014.90 1015.43 1015.90 1016.34 1016.80 1017.31 1017.88 1018.49 1019.11 1019.72 1020.27 1020.74 1021.10 1021.38 1021.57 1021.71 1021.81 1021.90 1021.97 1022.02 1022.04 1022.02 1021.95 1021.83 1021.66 1021.48 1021.30 1021.14 1021.02 1020.94 1020.89 1020.84 1020.77 1020.66 1020.47 1020.20 1019.85 1019.43 1018.95
1011.51 1012.17 1012.87 1013.55 1014.19 1014.78 1015.33 1015.89 1016.46 1017.08 1017.73 1018.40 1019.07 1019.70 1020.25 1020.70 1021.05 1021.29 1021.45 1021.55 1021.60 1021.64 1021.66 1021.66 1021.64 1021.58 1021.47 1021.33 1021.15 1020.95 1020.75 1020.58 1020.43 1020.32 1020.24 1020.16 1020.06 1019.93 1019.73 1019.46 1019.12 1018.72 1018.28
1010.94 1011.52 1012.16 1012.81 1013.47 1014.12 1014.76 1015.42 1016.11 1016.82 1017.56 1018.29 1018.99 1019.62 1020.16 1020.59 1020.90 1021.10 1021.21 1021.25 1021.26 1021.24 1021.21 1021.16 1021.09 1021.00 1020.87 1020.71 1020.52 1020.32 1020.12 1019.94 1019.78 1019.66 1019.55 1019.44 1019.32 1019.16 1018.94 1018.66 1018.32 1017.92 1017.48
1010.42 1010.93 1011.52 1012.15 1012.82 1013.51 1014.23 1014.98 1015.76 1016.56 1017.35 1018.12 1018.84 1019.46 1019.98 1020.36 1020.63 1020.78 1020.85 1020.85 1020.81 1020.74 1020.66 1020.57 1020.46 1020.33 1020.18 1020.00 1019.81 1019.61 1019.41 1019.24 1019.08 1018.95 1018.82 1018.70 1018.54 1018.35 1018.11 1017.80 1017.43 1017.01 1016.56
1010.03 1010.48 1011.02 1011.63 1012.31 1013.03 1013.81 1014.62 1015.46 1016.30 1017.13 1017.91 1018.61 1019.21 1019.69 1020.03 1020.26 1020.37 1020.40 1020.36 1020.28 1020.18 1020.06 1019.93 1019.79 1019.63 1019.45 1019.26 1019.05 1018.85 1018.66 1018.48 1018.32 1018.18 1018.04 1017.89 1017.72 1017.49 1017.21 1016.86 1016.46 1016.01 1015.53
1009.81 1010.23 1010.73 1011.32 1011.99 1012.73 1013.52 1014.36 1015.22 1016.08 1016.90 1017.66 1018.33 1018.89 1019.32 1019.62 1019.81 1019.89 1019.90 1019.84 1019.75 1019.62 1019.48 1019.32 1019.14 1018.95 1018.73 1018.51 1018.28 1018.06 1017.85 1017.67 1017.50 1017.35 1017.19 1017.02 1016.82 1016.56 1016.25 1015.87 1015.43 1014.95 1014.45
1009.81 1010.20 1010.68 1011.25 1011.90 1012.63 1013.41 1014.24 1015.08 1015.91 1016.69 1017.40 1018.01 1018.51 1018.90 1019.16 1019.32 1019.39 1019.39 1019.34 1019.24 1019.11 1018.95 1018.76 1018.54 1018.30 1018.04 1017.77 1017.50 1017.24 1017.00 1016.79 1016.60 1016.43 1016.26 1016.07 1015.84 1015.56 1015.22 1014.82 1014.36 1013.87 1013.35
1010.02 1010.40 1010.86 1011.40 1012.03 1012.72 1013.47 1014.25 1015.04 1015.80 1016.51 1017.14 1017.68 1018.12 1018.46 1018.69 1018.83 1018.91 1018.91 1018.87 1018.78 1018.64 1018.47 1018.25 1017.99 1017.70 1017.37 1017.04 1016.71 1016.39 1016.10 1015.85 1015.63 1015.43 1015.24 1015.04 1014.80 1014.51 1014.17 1013.76 1013.30 1012.81 1012.31
1010.38 1010.77 1011.22 1011.74 1012.33 1012.98 1013.67 1014.38 1015.09 1015.76 1016.37 1016.92 1017.37 1017.74 1018.03 1018.23 1018.36 1018.43 1018.45 1018.42 1018.34 1018.20 1018.01 1017.76 1017.45 1017.09 1016.70 1016.29 1015.88 1015.50 1015.15 1014.85 1014.60 1014.38 1014.17 1013.96 1013.73 1013.45 1013.12 1012.73 1012.30 1011.83 1011.36
1010.84 1011.24 1011.69 1012.19 1012.74 1013.33 1013.95 1014.58 1015.19 1015.75 1016.27 1016.71 1017.08 1017.38 1017.61 1017.78 1017.90 1017.97 1017.99 1017.96 1017.88 1017.74 1017.52 1017.23 1016.86 1016.44 1015.97 1015.49 1015.01 1014.56 1014.16 1013.82 1013.54 1013.30 1013.09 1012.89 1012.67 1012.42 1012.12 1011.77 1011.38 1010.97 1010.54
1011.33 1011.75 1012.19 1012.67 1013.18 1013.72 1014.26 1014.79 1015.30 1015.77 1016.18 1016.52 1016.80 1017.03 1017.20 1017.33 1017.42 1017.48 1017.49 1017.46 1017.36 1017.19 1016.94 1016.60 1016.19 1015.70 1015.17 1014.62 1014.09 1013.59 1013.15 1012.78 1012.48 1012.24 1012.04 1011.86 1011.67 1011.46 1011.21 1010.91 1010.58 1010.22 1009.85
1011.78 1012.21 1012.65 1013.11 1013.58 1014.06 1014.53 1014.98 1015.39 1015.76 1016.07 1016.32 1016.52 1016.67 1016.78 1016.86 1016.91 1016.94 1016.92 1016.86 1016.73 1016.52 1016.23 1015.85 1015.38 1014.85 1014.27 1013.68 1013.11 1012.59 1012.13 1011.76 1011.46 1011.24 1011.06 1010.91 1010.76 1010.59 1010.39 1010.15 1009.88 1009.58 1009.27
1012.14 1012.58 1013.01 1013.45 1013.89 1014.31 1014.72 1015.10 1015.43 1015.71 1015.93 1016.10 1016.21 1016.29 1016.34 1016.36 1016.35 1016.32 1016.26 1016.14 1015.97 1015.71 1015.37 1014.95 1014.44 1013.88 1013.28 1012.68 1012.11 1011.59 1011.15 1010.79 1010.51 1010.31 1010.17 1010.05 1009.94 1009.82 1009.67 1009.48 1009.26 1009.02 1008.75
1012.40 1012.84 1013.26 1013.67 1014.07 1014.46 1014.81 1015.12 1015.39 1015.59 1015.74 1015.83 1015.88 1015.88 1015.86 1015.81 1015.73 1015.63 1015.50 1015.32 1015.08 1014.77 1014.39 1013.93 1013.40 1012.83 1012.23 1011.65 1011.10 1010.61 1010.20 1009.87 1009.63 1009.47 1009.35 1009.27 1009.19 1009.11 1008.99 1008.85 1008.67 1008.47 1008.25
1012.58 1013.00 1013.40 1013.78 1014.15 1014.49 1014.79 1015.06 1015.26 1015.41 1015.49 1015.52 1015.50 1015.43 1015.34 1015.21 1015.06 1014.88 1014.67 1014.41 1014.11 1013.74 1013.31 1012.83 1012.30 1011.73 1011.16 1010.61 1010.10 1009.66 1009.30 1009.02 1008.82 1008.68 1008.59 1008.53 1008.48 1008.42 1008.33 1008.21 1008.06 1007.89 1007.71
Thickness
5686 5685 5684 5683 5681 5679 5676 5672 5667 5661 5656 5649 5643 5637 5631 5627 5623 5620 5617 5613 5610 5606 5602 5599 5595 5592 5588 5585 5582 5579 5576 5573 5571 5570 5570 5571 5571 5570 5569 5567 5565 5563 5562
5679 5678 5677 5675 5674 5671 5669 5666 5661 5656 5651 5646 5640 5634 5628 5622 5618 5614 5610 5607 5604 5600 5596 5592 5589 5585 5581 5578 5574 5571 5567 5564 5562 5559 5558 5558 5559 5560 5561 5558 5556 5554 5552
5675 5672 5669 5667 5665 5663 5661 5659 5655 5650 5645 5640 5633 5626 5620 5615 5610 5606 5603 5599 5596 5593 5590 5585 5581 5577 5574 5569 5566 5563 5559 5555 5551 5548 5546 5544 5545 5546 5550 5549 5546 5543 5541
5670 5666 5663 5660 5657 5655 5653 5651 5647 5643 5639 5634 5629 5623 5616 5609 5604 5599 5595 5591 5588 5585 5582 5578 5573 5569 5565 5561 5557 5554 5550 5546 5541 5538 5535 5533 5531 5530 5535 5538 5537 5535 5532
5664 5661 5658 5655 5651 5647 5645 5643 5639 5635 5631 5627 5623 5617 5610 5603 5596 5592 5587 5583 5580 5577 5573 5569 5565 5561 5557 5552 5548 5544 5540 5536 5532 5528 5524 5521 5517 5515 5515 5522 5523 5523 5522
5657 5654 5650 5646 5642 5638 5636 5634 5631 5626 5623 5619 5615 5610 5603 5596 5589 5584 5579 5575 5571 5568 5564 5560 5556 5552 5548 5544 5539 5535 5531 5527 5523 5518 5514 5510 5507 5503 5500 5503 5507 5510 5513
5650 5646 5642 5638 5634 5631 5628 5626 5624 5618 5614 5611 5607 5602 5597 5591 5585 5578 5573 5567 5563 5559 5555 5551 5547 5543 5539 5535 5530 5526 5521 5517 5513 5509 5505 5501 5498 5494 5491 5489 5492 5494 5498
5646 5643 5639 5634 5630 5626 5622 5619 5616 5611 5607 5603 5598 5594 5589 5583 5578 5572 5566 5561 5556 5551 5547 5542 5538 5534 5530 5526 5521 5516 5512 5508 5503 5499 5495 5491 5488 5484 5480 5476 5474 5477 5481
5642 5638 5633 5629 5624 5621 5617 5614 5610 5605 5600 5595 5590 5585 5580 5576 5570 5564 5559 5553 5548 5543 5539 5534 5529 5525 5521 5516 5512 5507 5503 5499 5494 5490 5486 5481 5478 5474 5470 5465 5460 5456 5460
5636 5632 5628 5624 5619 5615 5611 5607 5603 5599 5593 5588 5583 5578 5573 5568 5562 5556 5550 5545 5540 5535 5530 5525 5520 5515 5511 5507 5502 5498 5493 5489 5484 5480 5476 5471 5468 5464 5459 5454 5450 5445 5444
5633 5629 5624 5619 5614 5609 5604 5600 5596 5591 5586 5581 5576 5570 5564 5559 5553 5548 5542 5536 5531 5526 5521 5516 5511 5506 5502 5497 5492 5488 5483 5479 5475 5470 5466 5462 5458 5453 5449 5444 5440 5435 5431
5629 5624 5619 5613 5608 5603 5599 5594 5590 5585 5580 5574 5568 5562 5556 5550 5544 5539 5533 5528 5522 5517 5512 5507 5501 5497 5492 5488 5483 5478 5474 5469 5465 5461 5456 5452 5448 5444 5439 5434 5429 5425 5421
5622 5617 5612 5609 5605 5600 5595 5590 5584 5579 5573 5567 5561 5554 5548 5542 5536 5530 5524 5519 5513 5508 5502 5497 5492 5487 5483 5478 5474 5469 5465 5460 5456 5451 5447 5443 5438 5433 5428 5423 5419 5414 5411
5618 5614 5610 5606 5602 5597 5591 5585 5578 5573 5566 5560 5553 5546 5540 5534 5528 5522 5516 5510 5504 5499 5493 5488 5483 5478 5473 5469 5464 5460 5456 5451 5447 5442 5437 5432 5427 5423 5418 5413 5408 5403 5399
5614 5611 5608 5603 5597 5591 5586 5580 5573 5566 5559 5552 5545 5539 5533 5526 5519 5513 5507 5501 5495 5490 5484 5479 5473 5469 5464 5459 5455 5451 5447 5443 5438 5433 5428 5423 5418 5413 5408 5404 5399 5393 5389
5612 5609 5604 5599 5594 5589 5582 5575 5567 5560 5552 5545 5538 5531 5523 5516 5510 5504 5498 5491 5486 5480 5474 5469 5464 5459 5455 5452 5449 5445 5440 5435 5429 5424 5419 5413 5408 5403 5399 5395 5390 5383 5376
5608 5604 5600 5596 5591 5585 5579 5570 5562 5552 5544 5537 5529 5522 5515 5508 5501 5495 5488 5482 5476 5471 5465 5459 5454 5449 5445 5442 5440 5436 5432 5426 5420 5413 5408 5403 5397 5392 5386 5381 5377 5370 5363
5601 5598 5593 5588 5583 5576 5569 5561 5552 5543 5535 5528 5520 5513 5506 5499 5492 5485 5479 5473 5467 5461 5455 5450 5445 5440 5436 5433 5430 5426 5422 5415 5409 5402 5396 5390 5385 5377 5371 5367 5363 5358 5351
5594 5589 5585 5579 5572 5566 5558 5550 5540 5532 5525 5518 5511 5504 5497 5490 5482 5475 5469 5463 5457 5451 5446 5441 5435 5430 5427 5423 5419 5414 5409 5404 5398 5392 5384 5377 5371 5366 5360 5356 5352 5348 5342
5582 5577 5572 5566 5560 5554 5547 5539 5530 5522 5516 5510 5503 5495 5488 5481 5474 5467 5460 5454 5448 5442 5437 5432 5426 5420 5416 5412 5407 5401 5396 5392 5387 5381 5374 5366 5360 5355 5348 5341 5336 5333 5330
5568 5564 5559 5553 5547 5541 5535 5527 5519 5514 5508 5500 5493 5485 5478 5471 5464 5457 5450 5443 5437 5432 5426 5422 5417 5411 5405 5400 5395 5388 5381 5376 5373 5369 5363 5355 5348 5343 5336 5329 5323 5319 5316
5554 5550 5545 5539 5533 5528 5523 5516 5509 5504 5496 5489 5481 5474 5467 5460 5454 5446 5439 5432 5425 5419 5414 5410 5406 5402 5394 5388 5382 5376 5369 5363 5358 5355 5349 5342 5336 5331 5325 5317 5311 5306 5302
5541 5536 5531 5525 5519 5515 5511 5505 5498 5491 5484 5477 5470 5463 5456 5448 5441 5434 5428 5421 5413 5407 5403 5397 5394 5391 5385 5376 5369 5363 5357 5350 5343 5339 5335 5330 5324 5318 5311 5304 5298 5293 5286
5529 5524 5519 5513 5507 5502 5497 5492 5485 5479 5472 5465 5458 5451 5443 5437 5430 5423 5416 5409 5402 5395 5390 5385 5381 5378 5372 5364 5356 5348 5342 5336 5329 5324 5320 5316 5310 5302 5296 5291 5284 5277 5272
5517 5512 5507 5502 5496 5490 5485 5479 5473 5467 5460 5453 5445 5439 5432 5426 5419 5413 5406 5399 5393 5384 5378 5373 5366 5361 5360 5354 5345 5337 5331 5323 5317 5311 5307 5302 5294 5288 5282 5277 5272 5267 5263
5505 5500 5495 5490 5484 5478 5472 5466 5461 5455 5448 5441 5434 5427 5421 5414 5407 5401 5397 5392 5384 5379 5371 5363 5355 5350 5345 5341 5334 5326 5319 5312 5304 5297 5291 5286 5279 5273 5269 5265 5262 5258 5255